Location: Kalberh�ni
(46.4610°N, 7.2453°E)
Time: 22:24:18
(UTC+00:00)

USA 229 - Pass Details

Date: 24 October 2021
Orbit: 946 x 1266 km, 63.4° (Epoch: 25 November)

Event Time Altitude Azimuth Distance (km) Brightness Sun altitude
Rises 17:24:40 0° 190° (S) 3,618 6.7 -10.3°
Reaches altitude 10° 17:27:18 10° 183° (S) 2,697 5.9 -10.7°
Maximum altitude 17:33:05 40° 116° (ESE) 1,444 4.0 -11.7°
Drops below altitude 10° 17:39:14 10° 50° (NE) 2,873 5.5 -12.8°
Enters shadow 17:39:31 - 49° (NE) 2,968 5.6 -12.8°
